Погода в Буонметхуоте

Вьетнам     12°40′33″N   108°02′52″E
темп.,
°C
ветер,
м/с
пор.,
м/с
влажн.,
%
обл.,
%
осадки,
мм/ч
давл.,
гПа
погр.,
м
13 июня, вс
вс1301:00+21ю2796100 0.1 1009193
04:00+21ю2795100 0.0 1008190
07:00+22ю2690100 0.0 1010265
10:00+29зюз495158 0.0 10101650
13:00+31з4748100 0.0 10082144
16:00+27з37645 0.3 1006737
19:00+23з118535 0.5 100911
22:00+22ю138967 0.1 101263
14 июня, пн
пн1401:00+21ю149442 0.1 101099
04:00+20ююв119566 0.0 101027
07:00+23ю13828 0.0 1011248
10:00+30з25526 0.0 10101567
13:00+33зсз463898 0.0 10072599
16:00+30сз4650100 0.0 10061067
19:00+24с1176100 0.0 100816
22:00+23ю1184100 0.0 100911
15 июня, вт
вт1501:00+22ююв14846 0.0 100892
04:00+21ююв128687 0.0 100854
07:00+24юз13765 0.0 1010289
10:00+30зсз365246 0.0 10091723
13:00+31зсз355188 0.0 10071836
16:00+30зсз355480 0.0 10061089
19:00+23ююв228732 0.6 100841
22:00+24ю138597 0.2 100976
16 июня, ср
ср1601:00+23зюз1286100 0.2 100957
04:00+22ю129120 0.0 100971
07:00+22юз139389 0.5 1011156
10:00+27з247963 1.4 1011811
13:00+27з237499 2.3 1009476
16:00+27ююз126746 0.0 1008500
19:00+23ю119239 1.6 100913
22:00+22ю129596 0.0 101156
17 июня, чт
чт1701:00+22ю1293100 0.0 101057
04:00+22ююв139298 0.1 101095
07:00+23зюз1490100 0.1 1011206
10:00+26зсз3585100 0.9 1011766
13:00+29з3562100 1.7 10091084
16:00+29з3463100 0.8 10081098
19:00+23сз1194100 3.0 101022
22:00+22з009795 0.0 101124